FREGAT R/B, 40316

Orbit data source: Space-Track

FREGAT R/B, 40316 is space debris in MEO originally from a launch on Sun, 30 Nov 2014 UTC launched from the Plesetsk Missile And Space Complex (PKMTR). Debris objects in space refer to the collection of defunct objects orbiting the Earth. Examples of debris include non-operational satellites, rocket bodies, and fragments generated from explosions, collisions, or faulty payload assembly.

Loading next visibility...
FREGAT R/B details
Identifier
40316, 2014-075B
Orbit
MEO
Last TLE update1 day ago
Origin
Flag of CISLavochkin (CIS)
ManufacturerLavochkin
MissionSpacecraft
Bus & MotorFREGAT, Unknown motor
Mass1,000 kg wet, 1,000 kg dry
Launch date (UTC)
2014-11-30 (10 years ago)
Launch vehicleUnknown
Launch site
Plesetsk Missile And Space Complex (PKMTR)
Object type
Payload
Rocket body
Debris
Shape & HBRCyl, 2.66 m
Radar Cross Section6.468 m², Large (>1 m²)

Expand to show TLE details & history

TLE from 1 day ago
0 FREGAT R/B
1 40316U 14075B   24336.23807472  .00000077  00000-0  00000+0 0  9995
2 40316  63.5617 215.6050 0046254 135.0336 225.4398  2.08635681 76213
Epoch: 2024-12-01T05:42Z
Definitive object data (Epoch: 2024-12-01T05:42:49.655Z)
Latitude0.00006°
Longitude59.31987°
Altitude19,577.541 km
Speed3.912 km/s
True Right ascension14h 22m 25s
True Declination0° 00' 00"
Sunlit
Object was in daylight at TLE epoch
Visualization TLE readout
Latitude60.76443°
Longitude176.82527°
Altitude19,400.833 km
Speed3.941 km/s
Apparent Right ascension21h 03m 52s
Apparent Declination50° 22' 44"
Sunlit
Object is in daylight
Visualization observer readout
Local Sidereal Time05:46:44
Azimuth330.597° NNW
Elevation10.091°
Doppler factor1
Orbital elements
Apogee altitude19,611.971 km
Perigee altitude19,372.648 km
Semi-major axis25,870.447 km
Eccentricity0.0046254
Inclination63.5617°
RAAN215.605°
Arg. of periapsis135.0336°
True anomaly225.06367°
Mean anomaly225.4398°
Eccentric anomaly225.25158°
Mean motion0.5216 °/min
BSTARUnknown
Orbital period690.18 mins
Loading maneuver chart data...
Loading historical data...
Loading historical data...
Loading historical data...
Loading historical data...
Loading historical data...
Loading historical data...
Loading historical data...
Other satellites on launch #75 in the year 2014 (2014-11-30 UTC)

FREGAT R/B Visibility forecast

Observer location: undefined°, undefined

Span
Click to sort rows by Start time (UTC) header in descending order
Start Az.
Max El. time (UTC)
Max El. Az.
Max El.
End time (UTC)
End Az.
56 mins2024-12-02 08:01:34.666Z330.15° NNW2024-12-02 08:29:34.666Z317.254° NNW11.874°2024-12-02 08:57:34.666Z303.964° NW
299 mins2024-12-02 15:18:34.666Z174.466° S2024-12-02 17:38:34.666Z99.452° ESE44.734°2024-12-02 20:17:34.666Z50.667° ENE
80 mins2024-12-03 06:40:34.666Z333.96° NNW2024-12-03 07:41:34.666Z306.637° NW19.461°2024-12-03 08:00:34.666Z296.684° NW
|